Regional Weather Roundup
Issued by NWS

Home | Current Version | Previous Version | Text Only | Print | Product List | Glossary Off
Versions: 1 2 3 4 5 6 7 8 9 10 11 12 13 14 15 16 17 18 19 20 21 22 23 24 25 26 27 28 29 30 31 32 33 34 35 36 37 38 39 40 41 42 43 44 45 46 47 48 49 50

297
ASUS45 KABQ 100501
RWRNM
NEW MEXICO REGIONAL WEATHER ROUNDUP
NATIONAL WEATHER SERVICE ALBUQUERQUE NM
1000 PM MST TUE FEB 09 2016

NOTE: "FAIR" MEANS FEW OR NO CLOUDS BELOW 12,000 FEET AGL WITH NO
       SIGNIFICANT WEATHER OR OBSTRUCTIONS TO VISION.

      THIS PRODUCT IS RELEASED AS TWO VERSIONS.  ONE VERSION NEAR
      THE TOP OF THE HOUR CONTAINING PRELIMINARY DATA FROM ALBUQUERQUE
      AND OTHER STATIONS.  A FINAL VERSION WITH ADDITIONAL DATA IS
      ISSUED ABOUT 10 MINUTES AFTER THE HOUR.

NMZ501-503-504-510>518-100600-
NORTHWEST PLATEAU/NORTHCENTRAL MOUNTAINS

CITY           SKY/WX    TMP DP  RH WIND       PRES   REMARKS
FARMINGTON     CLOUDY    30  23  75 NE7       30.40R WCI  23
SANTA FE       CLOUDY    30  19  63 CALM      30.40R
TAOS           CLOUDY    25  18  74 N6        30.45R WCI  18

$$
NMZ402-403-502-505>509-100600-
WESTCENTRAL MOUNTAINS/SOUTHWEST MOUNTAINS

CITY           SKY/WX    TMP DP  RH WIND       PRES   REMARKS
GALLUP         CLEAR     23  17  78 E5        30.44R WCI  17
GRANTS         CLEAR     26  11  54 NW12      30.45R WCI  16
SILVER CITY      N/A     37  19  48 N10       30.39R WCI  30

$$
NMZ407-409-411-412-100600-
SOUTHERN DESERTS

CITY           SKY/WX    TMP DP  RH WIND       PRES   REMARKS
DEMING         CLEAR     36  13  38 NE6       30.35R WCI  31
HOLLOMAN AFB   CLOUDY    40  16  38 E2        30.34R
ALAMOGORDO     CLOUDY    39  16  38 NE3       30.36R
T OR C         CLEAR     45  17  32 NW6       30.35R

$$
NMZ519>523-100600-
CENTRAL VALLEYS/CENTRAL HIGHLANDS

CITY           SKY/WX    TMP DP  RH WIND       PRES   REMARKS
ALBUQUERQUE    CLOUDY    47  20  34 NE6       30.38S
DOUBLE EAGLE   CLEAR     41  19  42 NW10      30.40R
MORIARTY ARPT  FAIR      27  17  66 NE5       30.42R WCI  22
CLINES CORNERS CLOUDY    38  16  40 SE6       30.41R WCI  33
BELEN          FAIR      35  14  41 CALM      30.39S
SOCORRO        NOT AVBL

$$
NMZ524>526-539-540-100600-
SOUTHCENTRAL MOUNTAINS

CITY           SKY/WX    TMP DP  RH WIND       PRES   REMARKS
RUIDOSO          N/A     41  16  36 CALM      30.44S

$$
NMZ527>531-100600-
NORTHEAST HIGHLANDS/NORTHEAST PLAINS

CITY           SKY/WX    TMP DP  RH WIND       PRES   REMARKS
LAS VEGAS      CLOUDY    36  16  44 W6        30.42S WCI  31
RATON          CLOUDY    28  18  66 NE8       30.39R WCI  20
CLAYTON        CLOUDY    38  19  46 W10       30.35R WCI  31

$$
NMZ532>537-100600-
EASTCENTRAL PLAINS

CITY           SKY/WX    TMP DP  RH WIND       PRES   REMARKS
TUCUMCARI      CLOUDY    39  16  39 W8        30.34R WCI  33
CANNON AFB     CLOUDY    38  16  40 NW6       30.36R WCI  33
CLOVIS AIRPORT CLOUDY    32  18  55 NW6       30.37R WCI  26

$$
NMZ028-029-538-100600-
SOUTHEAST PLAINS

CITY           SKY/WX    TMP DP  RH WIND       PRES   REMARKS
ROSWELL        CLOUDY    38  20  48 W6        30.36R WCI  33
ARTESIA        CLEAR     37  21  52 W3        30.37R
CARLSBAD       CLEAR     36  22  56 SW9       30.35R WCI  29
HOBBS          CLEAR     36  18  48 W7        30.37R WCI  30


$$




USA.gov is the U.S. government's official web portal to all federal, state and local government web resources and services.